Wind_Speed
4 2 1 5 5 4 9 10 14 5 6 15 7 14 17 19 12 6 26 20 22 22 23 23 21 20 21 21 22 24 24 23 22 19 17 16 16 14 13 12 13 14 15 14 15 15 16 17 17
1 5 5 6 2 1 7 12 12 14 12 10 11 2 17 15 11 25 22 23 23 21 20 20 22 21 20 22 21 22 23 22 21 17 15 12 12 11 10 10 10 11 11 12 12 11 12 13 15
4 7 13 4 5 5 6 12 9 9 9 9 10 13 13 12 22 19 22 24 23 22 19 20 22 20 21 22 20 20 22 21 18 15 12 11 10 10 7 8 9 9 9 10 10 9 9 10 10
3 6 9 4 12 10 10 6 7 8 12 7 6 15 14 19 14 20 24 25 23 23 19 22 22 20 20 21 21 19 20 23 18 17 12 9 12 11 5 4 5 6 5 6 7 7 6 6 6
7 13 3 8 13 8 8 6 6 9 7 16 16 17 19 10 16 24 24 23 22 22 18 22 22 22 21 20 21 21 21 21 24 21 19 15 14 19 8 4 4 4 4 4 3 3 3 2 2
13 5 3 9 11 7 8 4 3 8 6 15 19 18 12 13 23 22 21 22 23 19 19 18 21 21 21 21 21 21 21 21 23 24 21 12 26 23 20 6 5 4 2 2 1 1 1 1 2
4 4 8 8 12 11 8 7 12 6 8 12 5 15 14 18 22 21 19 19 20 21 20 17 17 19 20 20 21 20 20 22 21 23 21 25 24 27 24 10 7 6 4 3 3 2 2 3 3
7 2 10 7 14 13 4 11 5 12 11 4 4 6 18 22 23 21 20 19 18 18 17 17 16 16 16 17 19 19 18 19 19 18 19 22 21 29 23 15 6 8 6 5 5 4 3 5 4
6 4 8 13 12 11 5 12 9 6 9 9 2 10 22 25 24 22 20 19 18 18 16 16 16 15 15 15 17 16 16 16 17 16 16 15 13 26 26 18 10 10 9 8 8 6 6 6 4
9 8 8 7 13 10 8 9 3 3 6 12 11 12 20 25 25 23 22 21 20 18 17 16 15 15 15 15 16 16 16 16 14 13 15 14 10 10 30 22 14 12 12 11 7 7 7 7 4
9 8 7 6 11 6 7 7 1 6 14 12 12 16 21 23 23 22 20 19 19 18 17 16 16 15 16 18 14 15 15 15 14 15 13 12 12 9 15 28 20 14 11 10 12 8 9 11 6
12 8 6 4 6 2 5 4 8 7 7 9 12 17 21 21 22 22 20 19 20 19 17 15 15 14 14 10 11 10 14 14 13 14 14 13 13 12 13 16 17 16 12 13 10 9 9 7 8
8 4 5 7 1 1 6 0 6 3 7 9 14 17 19 19 19 19 18 17 18 18 17 16 15 15 14 14 13 11 13 10 10 15 16 12 13 13 13 15 17 20 19 14 13 11 9 12 6
2 2 5 5 4 1 3 4 2 9 8 12 15 16 17 17 18 19 18 18 18 17 17 16 15 15 14 16 12 9 7 8 11 9 14 14 12 12 10 12 19 21 17 18 13 12 12 7 7
7 10 4 8 6 4 7 10 6 9 8 12 14 15 16 16 17 19 20 19 18 18 16 17 16 16 15 15 10 11 9 11 11 9 11 12 12 14 12 8 8 11 15 12 13 12 8 8 9
10 7 3 10 2 5 9 1 11 9 6 12 13 14 15 18 18 18 19 17 17 17 17 17 15 16 15 14 11 11 11 13 12 12 12 11 11 11 10 10 9 8 12 11 11 10 10 9 10
6 6 5 4 3 5 4 10 6 3 8 7 12 18 16 17 18 19 18 18 17 16 17 18 18 14 14 14 15 13 11 17 17 10 18 15 13 11 12 10 10 12 13 13 12 11 11 11 11
8 8 4 2 4 8 11 7 6 8 11 9 11 16 17 17 19 19 19 18 18 17 18 18 17 20 19 16 14 14 14 15 17 12 13 13 15 12 12 12 12 13 12 13 14 15 16 13 11
5 9 9 4 3 5 11 10 8 8 4 8 10 15 20 19 17 18 19 18 18 19 20 21 21 20 11 19 17 15 13 14 14 13 11 13 13 13 12 13 13 14 16 13 13 13 15 13 12
9 8 6 3 3 8 9 8 5 3 2 4 7 13 19 19 20 20 21 18 19 20 20 20 19 22 22 15 15 12 11 12 13 8 11 11 10 14 13 14 19 14 19 14 12 13 12 11 11
15 2 10 10 10 14 8 9 8 8 4 6 6 12 17 19 21 22 23 21 19 19 20 22 22 21 16 16 12 14 13 9 12 15 13 13 15 17 16 16 17 18 16 13 11 12 10 8 10
14 10 8 10 13 4 2 3 9 10 12 10 13 14 16 17 20 21 22 23 21 18 16 20 21 20 18 15 17 15 12 11 11 10 12 13 14 15 17 17 17 20 18 18 15 11 13 11 8
12 7 8 9 13 13 9 5 7 15 11 8 7 3 7 15 18 20 20 21 22 19 15 18 19 20 19 18 17 15 12 9 8 7 8 11 9 15 18 18 18 19 19 18 17 17 15 12 8
10 10 15 11 11 9 5 6 3 7 9 6 3 2 1 6 8 14 17 19 20 22 17 14 15 15 15 15 14 15 13 11 9 10 10 9 4 10 9 16 17 19 18 18 20 18 19 15 12
10 17 9 9 7 5 7 8 10 9 9 9 5 7 5 2 5 7 11 16 19 21 23 18 14 13 12 12 12 13 14 12 11 11 9 10 12 10 13 15 16 19 20 20 21 20 17 17 15
14 15 8 5 6 8 5 4 4 6 5 8 7 11 7 8 7 6 5 10 14 16 16 17 16 15 11 11 14 16 15 13 12 12 13 12 11 12 13 14 14 18 18 20 21 21 19 17 16
9 8 10 11 7 6 2 6 7 8 5 7 6 14 9 11 11 9 6 4 7 10 11 12 13 13 14 12 12 15 16 16 15 15 15 16 19 15 14 16 21 19 20 21 22 23 25 21 20
15 10 7 5 2 8 6 4 9 7 5 7 6 10 8 7 6 6 6 4 4 4 6 7 9 10 9 11 13 11 15 18 17 18 19 18 15 16 16 21 17 19 20 23 24 24 24 22 21
9 12 9 8 8 8 9 7 7 5 7 4 6 9 4 7 3 5 6 6 6 4 3 1 3 6 9 12 15 17 13 13 16 18 21 18 15 19 19 17 16 17 19 20 21 26 24 22 20
12 14 11 9 6 9 7 5 10 8 7 5 5 2 5 6 2 3 5 5 5 5 4 2 3 1 6 9 13 16 17 16 20 19 19 20 21 17 19 16 16 17 15 15 17 21 23 20 21
Wind_Direction
31 60 328 269 271 223 55 45 78 110 32 71 51 17 62 44 42 87 138 142 143 145 149 148 149 145 146 151 152 153 146 140 135 127 122 122 121 121 117 115 113 112 110 104 100 100 101 105 111
113 238 244 259 236 241 71 81 46 53 65 71 50 145 91 61 92 126 131 142 146 144 144 151 150 149 152 155 157 157 152 146 139 129 124 119 115 120 118 117 117 117 114 109 105 100 100 106 108
156 230 260 225 89 73 64 57 52 73 52 35 96 43 28 96 117 127 137 145 143 142 147 164 156 155 153 155 159 161 163 158 147 145 136 139 126 111 111 127 126 124 120 111 108 108 107 106 113
249 222 243 172 44 43 86 75 86 75 73 61 101 93 80 121 124 139 138 145 143 148 151 162 159 158 158 162 164 164 169 176 169 182 173 161 186 164 130 138 140 133 125 114 107 103 104 105 113
246 264 223 61 95 50 51 38 36 55 50 38 85 90 116 114 133 140 142 146 148 151 157 161 166 167 166 169 171 170 174 178 190 199 199 196 190 190 194 165 173 161 145 125 113 108 106 112 148
252 265 116 83 93 130 78 33 30 80 90 125 115 109 111 131 141 143 146 148 151 157 160 162 164 172 177 179 179 180 181 189 196 206 208 204 204 198 187 201 188 189 175 173 176 211 272 259 260
335 56 62 98 93 64 61 1 31 49 21 56 159 103 132 142 149 149 149 152 154 152 160 164 166 172 176 184 189 191 197 205 208 210 221 226 221 202 190 206 196 203 212 239 237 239 266 283 287
261 232 103 73 76 75 63 77 71 19 62 109 340 179 153 155 156 153 153 156 156 158 164 168 173 178 178 188 199 203 203 208 210 215 226 229 219 205 200 202 205 215 212 224 250 256 279 293 311
232 53 71 70 100 102 135 93 73 62 78 56 35 70 150 158 157 158 159 161 162 164 167 173 178 180 179 190 204 209 212 213 214 221 228 235 231 211 205 207 206 216 219 223 241 260 279 310 314
72 63 67 69 82 96 97 71 59 179 127 102 87 108 145 157 162 165 169 168 172 172 173 175 181 185 188 199 208 205 206 205 213 216 223 220 228 206 213 213 222 222 222 232 251 275 294 290 288
45 61 91 76 57 69 93 129 263 157 42 62 124 144 154 161 168 172 175 175 177 176 177 181 180 183 206 191 214 212 209 204 200 223 229 230 229 205 203 216 216 231 249 247 270 287 306 273 236
106 68 40 47 85 122 47 70 76 26 69 64 109 152 160 169 175 177 179 179 181 181 181 184 188 190 196 218 222 231 222 218 228 219 240 225 225 220 211 210 217 228 228 252 237 253 261 275 259
5 44 121 122 263 293 73 17 17 150 121 110 126 151 165 173 177 182 184 183 184 186 186 189 191 195 198 216 215 246 198 237 256 231 231 226 221 224 218 200 211 216 213 222 235 244 261 273 242
83 273 298 112 123 222 293 323 313 112 135 134 143 156 171 177 179 183 190 189 191 192 195 197 200 202 203 217 217 209 240 248 249 246 236 233 222 226 235 214 220 216 216 205 229 241 249 243 246
284 259 186 71 50 327 309 228 174 103 149 154 161 166 174 181 181 185 189 191 193 196 196 201 202 206 207 221 214 215 225 246 233 264 243 238 208 225 217 217 215 199 213 213 228 239 244 230 236
246 237 269 95 277 123 280 329 113 131 173 165 178 171 178 184 185 191 191 191 193 195 195 200 202 207 208 215 218 220 218 229 234 254 236 236 229 222 225 216 217 184 195 216 227 232 230 233 233
211 152 40 132 148 298 227 317 108 165 167 203 177 174 188 183 192 195 193 194 193 193 194 197 197 197 216 223 227 208 222 225 238 275 246 238 237 228 226 223 240 213 203 206 221 223 230 231 237
49 337 66 287 46 329 296 270 252 234 175 193 193 185 190 189 196 194 194 196 198 196 199 199 198 200 204 221 234 232 219 239 239 252 234 247 244 239 233 233 220 250 213 229 221 217 215 222 238
304 289 317 311 344 283 289 297 264 268 253 196 199 190 188 192 196 193 193 196 197 199 203 203 199 204 209 230 227 229 233 237 251 244 239 237 236 244 243 230 222 246 239 232 242 234 228 224 239
294 276 287 5 28 266 259 288 324 43 16 268 210 191 191 190 192 193 196 193 193 201 204 210 208 223 235 207 215 227 232 242 241 253 233 233 226 237 234 238 224 228 238 239 230 221 226 222 229
271 318 5 328 296 245 258 229 168 115 125 131 195 181 187 189 196 198 199 194 196 200 204 207 214 236 241 218 208 217 212 219 216 232 237 226 233 253 236 227 229 226 242 240 235 237 232 224 202
294 27 330 309 293 356 213 216 139 142 108 102 142 173 179 199 208 203 203 202 203 199 199 202 202 216 231 208 210 224 220 221 238 223 236 239 239 236 234 228 231 228 237 238 245 249 243 207 218
298 3 295 293 277 267 207 97 278 163 105 103 101 99 192 199 203 208 210 205 209 202 194 188 196 200 205 215 204 225 217 227 231 232 249 235 238 237 229 227 234 232 234 234 230 225 229 229 228
282 281 258 233 250 263 103 257 289 346 76 57 121 159 356 269 221 195 201 205 206 204 194 188 187 192 193 208 217 214 231 221 226 220 221 226 266 241 264 235 232 229 234 230 238 230 218 220 226
230 254 253 232 216 142 96 302 131 96 82 53 33 46 60 89 147 187 187 195 203 209 214 214 207 200 204 213 211 228 227 233 231 226 233 235 234 228 245 259 239 231 234 238 240 233 220 225 220
241 275 280 253 273 93 132 106 20 67 83 55 58 84 71 80 97 108 161 193 198 208 216 221 225 223 226 225 226 231 235 234 232 236 226 233 231 233 233 243 242 241 242 240 236 234 228 229 240
234 247 357 312 203 240 70 135 207 107 86 66 57 82 66 76 80 86 102 171 195 204 210 220 225 230 229 227 226 232 230 229 223 233 237 233 229 224 230 230 242 245 236 234 235 235 233 232 234
272 336 258 318 345 287 155 291 89 85 39 53 52 38 120 81 65 77 86 98 135 186 212 225 229 231 227 229 229 230 219 238 238 231 235 236 241 236 235 243 241 249 246 242 240 231 231 225 233
194 234 241 285 318 316 290 107 78 56 45 6 335 97 2 74 102 114 104 103 93 101 119 212 234 247 251 242 236 236 232 232 239 235 241 240 252 262 247 249 245 244 248 245 241 234 226 222 224
296 306 297 272 245 256 314 320 76 60 52 35 332 89 66 339 116 137 111 97 89 82 67 49 309 250 267 250 237 243 251 245 237 241 239 238 253 287 249 247 250 245 238 248 244 220 213 217 223
Height
1494 1493 1497 1497 1498 1488 1493 1485 1482 1488 1482 1484 1487 1486 1488 1496 1499 1514 1517 1522 1526 1528 1529 1532 1535 1538 1541 1543 1546 1548 1550 1552 1555 1557 1559 1561 1563 1564 1566 1566 1567 1568 1569 1571 1571 1571 1571 1572 1572
1498 1499 1497 1492 1504 1504 1498 1483 1487 1484 1486 1488 1490 1487 1493 1501 1506 1512 1518 1524 1528 1532 1534 1536 1537 1540 1542 1545 1548 1551 1553 1555 1557 1561 1562 1564 1565 1566 1568 1569 1570 1571 1572 1572 1573 1574 1574 1575 1575
1496 1498 1492 1480 1488 1502 1503 1484 1485 1485 1488 1487 1491 1496 1498 1510 1514 1516 1521 1526 1531 1534 1538 1537 1539 1542 1544 1546 1550 1552 1554 1557 1558 1561 1563 1564 1564 1566 1570 1571 1572 1573 1574 1573 1574 1575 1576 1577 1577
1497 1495 1490 1501 1493 1486 1487 1487 1486 1488 1489 1490 1491 1502 1511 1514 1516 1520 1524 1527 1532 1535 1538 1538 1541 1544 1547 1549 1551 1553 1555 1557 1560 1563 1564 1566 1570 1569 1570 1574 1575 1575 1576 1575 1575 1576 1577 1578 1579
1494 1484 1484 1486 1498 1492 1489 1490 1488 1488 1490 1495 1495 1505 1513 1518 1519 1523 1526 1529 1533 1536 1539 1539 1542 1545 1548 1550 1552 1554 1557 1559 1560 1562 1565 1568 1571 1570 1573 1575 1577 1577 1577 1577 1576 1577 1578 1578 1578
1490 1481 1492 1499 1495 1490 1491 1491 1489 1489 1492 1496 1502 1508 1515 1520 1522 1526 1528 1530 1535 1537 1541 1541 1543 1545 1548 1551 1553 1555 1557 1559 1560 1563 1564 1567 1568 1571 1572 1574 1576 1577 1578 1578 1578 1578 1578 1578 1578
1485 1481 1489 1492 1496 1497 1495 1493 1490 1491 1492 1496 1499 1504 1517 1521 1524 1527 1529 1532 1534 1538 1542 1545 1545 1547 1548 1551 1553 1555 1557 1559 1561 1563 1564 1565 1566 1570 1570 1573 1575 1577 1578 1578 1578 1578 1578 1578 1578
1485 1476 1485 1488 1500 1504 1498 1498 1498 1495 1500 1501 1501 1510 1514 1519 1523 1526 1529 1533 1536 1539 1542 1546 1548 1549 1550 1552 1553 1555 1556 1559 1561 1563 1563 1564 1564 1569 1571 1573 1575 1576 1577 1578 1578 1578 1578 1578 1578
1484 1481 1491 1491 1494 1499 1496 1496 1499 1500 1498 1503 1504 1502 1510 1518 1523 1526 1530 1533 1536 1539 1542 1545 1548 1549 1551 1554 1553 1555 1556 1558 1560 1561 1562 1563 1562 1567 1570 1572 1573 1575 1576 1577 1577 1577 1577 1577 1576
1479 1491 1494 1487 1488 1493 1496 1496 1496 1491 1491 1499 1505 1509 1513 1518 1522 1525 1529 1532 1536 1539 1542 1545 1547 1550 1552 1551 1552 1554 1555 1556 1558 1560 1560 1561 1562 1565 1568 1570 1572 1574 1575 1576 1576 1576 1576 1576 1576
1484 1493 1488 1493 1492 1493 1494 1492 1492 1490 1491 1496 1503 1511 1515 1519 1522 1525 1528 1532 1535 1539 1542 1544 1547 1549 1550 1552 1552 1554 1554 1555 1558 1558 1558 1560 1561 1564 1565 1567 1570 1572 1575 1576 1576 1575 1575 1575 1576
1486 1491 1490 1494 1496 1493 1491 1494 1491 1495 1499 1499 1503 1510 1513 1517 1520 1523 1526 1530 1534 1538 1541 1544 1547 1549 1551 1550 1551 1553 1553 1555 1555 1558 1558 1559 1560 1561 1564 1566 1570 1571 1574 1575 1576 1575 1576 1575 1575
1484 1490 1489 1493 1493 1491 1494 1494 1494 1492 1498 1500 1505 1510 1512 1515 1519 1521 1525 1529 1534 1537 1540 1542 1545 1548 1551 1552 1554 1553 1550 1554 1554 1557 1558 1559 1559 1560 1561 1564 1568 1569 1569 1570 1574 1575 1575 1573 1573
1490 1490 1485 1487 1489 1490 1490 1490 1493 1492 1495 1500 1504 1508 1511 1514 1517 1521 1524 1528 1532 1535 1538 1541 1545 1546 1549 1550 1552 1554 1554 1554 1553 1553 1557 1557 1557 1558 1560 1561 1563 1564 1566 1568 1571 1572 1573 1572 1574
1490 1486 1481 1484 1488 1488 1488 1486 1486 1491 1495 1499 1503 1505 1508 1512 1515 1518 1521 1525 1529 1533 1536 1539 1541 1543 1545 1546 1548 1552 1554 1554 1552 1554 1552 1556 1555 1556 1558 1559 1560 1562 1565 1566 1569 1570 1570 1572 1573
1482 1483 1487 1484 1487 1488 1488 1490 1480 1488 1493 1494 1499 1503 1505 1509 1513 1516 1520 1524 1527 1530 1533 1536 1539 1541 1543 1544 1545 1548 1551 1553 1552 1551 1551 1552 1555 1555 1557 1559 1560 1561 1563 1566 1567 1568 1570 1570 1570
1478 1488 1491 1486 1485 1485 1485 1488 1479 1484 1487 1488 1494 1497 1502 1506 1509 1514 1518 1521 1524 1528 1531 1533 1536 1541 1544 1544 1544 1545 1548 1548 1550 1548 1549 1551 1553 1554 1555 1557 1558 1559 1561 1563 1565 1567 1568 1567 1568
1490 1484 1485 1491 1482 1484 1483 1481 1476 1476 1480 1485 1486 1491 1498 1502 1506 1510 1515 1518 1522 1526 1529 1532 1536 1537 1538 1539 1542 1541 1543 1544 1546 1547 1546 1549 1551 1552 1553 1555 1557 1557 1559 1560 1561 1563 1564 1564 1566
1486 1486 1487 1481 1478 1485 1483 1479 1474 1473 1474 1477 1482 1487 1491 1497 1502 1507 1513 1516 1519 1523 1525 1528 1530 1530 1531 1534 1537 1539 1539 1541 1543 1544 1546 1547 1549 1550 1551 1552 1554 1556 1557 1558 1558 1560 1560 1562 1564
1486 1486 1484 1479 1478 1482 1479 1477 1472 1473 1476 1478 1477 1482 1485 1492 1498 1504 1509 1514 1517 1519 1522 1525 1527 1525 1528 1530 1532 1535 1537 1538 1540 1541 1542 1545 1547 1545 1547 1549 1552 1554 1555 1556 1555 1557 1558 1559 1561
1478 1481 1489 1491 1479 1471 1472 1478 1473 1475 1475 1477 1478 1480 1484 1489 1493 1500 1505 1510 1513 1516 1519 1521 1522 1522 1524 1526 1531 1534 1537 1537 1538 1539 1540 1542 1543 1543 1546 1548 1548 1551 1551 1552 1554 1556 1555 1557 1559
1487 1480 1484 1486 1483 1485 1468 1523 1476 1472 1474 1474 1477 1479 1482 1486 1491 1495 1501 1506 1510 1513 1515 1518 1521 1522 1523 1524 1529 1531 1534 1536 1536 1537 1538 1538 1539 1540 1541 1539 1544 1547 1548 1549 1552 1553 1554 1555 1556
1487 1481 1485 1484 1483 1473 1470 1489 1485 1468 1474 1473 1475 1479 1479 1480 1485 1491 1497 1502 1507 1511 1513 1515 1518 1520 1523 1526 1527 1530 1531 1534 1534 1533 1534 1534 1535 1536 1538 1540 1541 1544 1546 1546 1548 1548 1551 1553 1555
1483 1484 1480 1474 1476 1489 1470 1477 1503 1474 1474 1474 1477 1480 1483 1481 1480 1485 1492 1499 1504 1509 1513 1516 1517 1519 1521 1523 1524 1527 1530 1532 1532 1532 1532 1532 1532 1532 1533 1535 1537 1537 1541 1542 1544 1545 1546 1550 1552
1480 1479 1494 1497 1489 1509 1464 1476 1484 1468 1472 1475 1479 1481 1484 1483 1483 1486 1490 1496 1502 1506 1511 1514 1516 1518 1519 1521 1524 1524 1526 1528 1529 1529 1530 1530 1529 1531 1529 1531 1532 1533 1536 1537 1539 1541 1542 1544 1547
1472 1471 1486 1506 1501 1499 1463 1487 1484 1470 1472 1477 1480 1484 1487 1487 1490 1491 1494 1497 1500 1505 1508 1512 1515 1515 1518 1519 1521 1522 1522 1524 1526 1525 1527 1527 1527 1528 1529 1527 1529 1529 1529 1531 1534 1536 1538 1540 1542
1470 1482 1460 1472 1463 1483 1471 1467 1462 1469 1472 1478 1481 1485 1491 1492 1495 1497 1498 1500 1502 1504 1507 1510 1513 1514 1515 1517 1518 1518 1518 1520 1521 1522 1522 1523 1521 1521 1523 1523 1522 1523 1524 1525 1526 1529 1532 1536 1537
1473 1469 1479 1475 1505 1504 1484 1479 1480 1478 1477 1478 1483 1489 1494 1499 1502 1503 1503 1503 1504 1505 1507 1509 1511 1512 1512 1514 1514 1515 1515 1516 1516 1516 1517 1518 1520 1520 1518 1518 1519 1518 1518 1518 1519 1523 1526 1530 1532
1476 1477 1471 1467 1475 1494 1499 1495 1472 1478 1480 1484 1485 1492 1496 1497 1504 1505 1505 1506 1506 1506 1507 1508 1510 1511 1511 1511 1510 1509 1511 1511 1512 1513 1513 1513 1515 1514 1514 1513 1513 1513 1512 1512 1512 1515 1520 1524 1527
1467 1471 1471 1484 1491 1480 1484 1486 1475 1479 1482 1489 1491 1493 1498 1503 1504 1506 1506 1507 1508 1508 1508 1508 1510 1506 1509 1507 1506 1506 1506 1507 1508 1509 1510 1508 1508 1509 1510 1509 1509 1508 1508 1507 1507 1510 1514 1519 1522